When you browse on this site, cookies collect data to enhance your experience and personalize the content and advertising you see.
Visit our Privacy Policy to learn more. By continuing to use the site, you agree to this use of cookies and data.
  • In United Kingdom
  • List of Countries
  • For 7 days
  • Water Temperature
  • Weather Map
  • Weather Widgets
  • user-avatar
    Login

    Hourly Weather Abercanaid

    Today, 24 February, Monday

    Time Temperature Precipitation Wind Pressure Humidity
    00:00 +3°C° 0.2 mm 3 mps 740 mmHg 87%
    01:00 +4°C° 0.5 mm 3 mps 738 mmHg 91%
    02:00 +5°C° 0.5 mm 4 mps 737 mmHg 94%
    03:00 +5°C° 0.5 mm 5 mps 736 mmHg 98%
    04:00 +5°C° 0.1 mm 7 mps 735 mmHg 96%
    05:00 +6°C° 0.1 mm 9 mps 733 mmHg 95%
    06:00 +6°C° 0.1 mm 11 mps 732 mmHg 93%
    07:00 +6°C° 1.6 mm 11 mps 732 mmHg 94%
    08:00 +5°C° 1.6 mm 12 mps 731 mmHg 94%
    09:00 +5°C° 1.6 mm 13 mps 730 mmHg 95%
    10:00 +7°C° 1.7 mm 13 mps 730 mmHg 94%
    11:00 +7°C° 1.7 mm 13 mps 729 mmHg 93%
    12:00 +7°C° 1.7 mm 13 mps 729 mmHg 93%
    13:00 +7°C° 0.1 mm 13 mps 729 mmHg 91%
    14:00 +5°C° 0.1 mm 12 mps 729 mmHg 89%
    15:00 +6°C° 0.1 mm 11 mps 729 mmHg 87%
    16:00 +4°C° 0 mm 11 mps 729 mmHg 85%
    17:00 +3°C° 0 mm 10 mps 729 mmHg 84%
    18:00 +3°C° 0 mm 10 mps 730 mmHg 82%
    19:00 +2°C° 0 mm 9 mps 730 mmHg 82%
    20:00 +1°C° 0 mm 8 mps 730 mmHg 81%
    21:00 0°C° 0 mm 8 mps 730 mmHg 81%
    22:00 0°C° 0 mm 7 mps 730 mmHg 81%
    23:00 0°C° 0 mm 7 mps 730 mmHg 82%

    Tomorrow, 25 February, Tuesday

    Time Temperature Precipitation Wind Pressure Humidity
    00:00 -1°C° 0 mm 7 mps 730 mmHg 82%
    01:00 -1°C° 0 mm 7 mps 730 mmHg 84%
    02:00 -1°C° 0 mm 7 mps 729 mmHg 86%
    03:00 -1°C° 0 mm 7 mps 729 mmHg 88%
    04:00 -1°C° 0.1 mm 7 mps 729 mmHg 87%
    05:00 -1°C° 0.1 mm 7 mps 729 mmHg 86%
    06:00 -1°C° 0.1 mm 6 mps 728 mmHg 85%
    07:00 0°C° 0.1 mm 7 mps 728 mmHg 83%
    08:00 0°C° 0.1 mm 7 mps 728 mmHg 81%
    09:00 0°C° 0.1 mm 7 mps 728 mmHg 79%
    10:00 +1°C° 0.1 mm 8 mps 727 mmHg 76%
    11:00 +1°C° 0.1 mm 8 mps 727 mmHg 72%
    12:00 +2°C° 0.1 mm 9 mps 727 mmHg 68%
    13:00 +2°C° 0.3 mm 9 mps 726 mmHg 75%
    14:00 +1°C° 0.3 mm 8 mps 725 mmHg 81%
    15:00 0°C° 0.3 mm 8 mps 724 mmHg 88%
    16:00 0°C° 0.6 mm 8 mps 724 mmHg 85%
    17:00 -1°C° 0.6 mm 9 mps 723 mmHg 82%
    18:00 -3°C° 0.6 mm 9 mps 723 mmHg 79%
    19:00 -3°C° 0.1 mm 9 mps 723 mmHg 79%
    20:00 -4°C° 0.1 mm 9 mps 723 mmHg 79%
    21:00 -4°C° 0.1 mm 8 mps 724 mmHg 79%
    22:00 -4°C° 0.1 mm 9 mps 724 mmHg 81%
    23:00 -5°C° 0.1 mm 9 mps 724 mmHg 84%

    Day after tomorrow, 26 February, Wednesday

    Time Temperature Precipitation Wind Pressure Humidity
    00:00 -5°C° 0.1 mm 9 mps 724 mmHg 86%
    01:00 -4°C° 0.6 mm 10 mps 725 mmHg 86%
    02:00 -4°C° 0.6 mm 10 mps 725 mmHg 86%
    03:00 -3°C° 0.6 mm 11 mps 725 mmHg 85%
    04:00 -3°C° 0.1 mm 11 mps 726 mmHg 85%
    05:00 -3°C° 0.1 mm 11 mps 727 mmHg 84%
    06:00 -3°C° 0.1 mm 11 mps 727 mmHg 83%
    07:00 -3°C° 0 mm 10 mps 728 mmHg 80%
    08:00 -3°C° 0 mm 10 mps 729 mmHg 77%
    09:00 -3°C° 0 mm 10 mps 730 mmHg 74%
    10:00 -2°C° 0 mm 10 mps 731 mmHg 73%
    11:00 -1°C° 0 mm 9 mps 732 mmHg 72%
    12:00 0°C° 0 mm 9 mps 732 mmHg 70%
    13:00 0°C° 0 mm 8 mps 732 mmHg 71%
    14:00 0°C° 0 mm 8 mps 733 mmHg 71%
    15:00 0°C° 0 mm 7 mps 733 mmHg 72%
    16:00 +1°C° 0.1 mm 6 mps 732 mmHg 77%
    17:00 0°C° 0.1 mm 5 mps 732 mmHg 82%
    18:00 -1°C° 0.1 mm 4 mps 732 mmHg 87%
    19:00 0°C° 0 mm 3 mps 732 mmHg 87%
    20:00 0°C° 0 mm 3 mps 732 mmHg 87%
    21:00 0°C° 0 mm 3 mps 732 mmHg 87%
    22:00 0°C° 0 mm 3 mps 731 mmHg 87%
    23:00 0°C° 0 mm 3 mps 731 mmHg 87%

    27 February, Thursday

    Time Temperature Precipitation Wind Pressure Humidity
    00:00 +1°C° 0 mm 2 mps 730 mmHg 87%
    01:00 0°C° 0.4 mm 3 mps 729 mmHg 91%
    02:00 +1°C° 0.4 mm 3 mps 727 mmHg 94%
    03:00 0°C° 0.4 mm 4 mps 726 mmHg 98%
    04:00 -1°C° 2.5 mm 4 mps 724 mmHg 98%
    05:00 -1°C° 2.5 mm 5 mps 723 mmHg 98%
    06:00 -1°C° 2.5 mm 5 mps 721 mmHg 98%
    07:00 -1°C° 0.7 mm 5 mps 721 mmHg 98%
    08:00 -1°C° 0.7 mm 4 mps 720 mmHg 97%
    09:00 -1°C° 0.7 mm 4 mps 720 mmHg 97%
    10:00 0°C° 0 mm 4 mps 721 mmHg 97%
    11:00 +1°C° 0 mm 3 mps 721 mmHg 96%
    12:00 +2°C° 0 mm 3 mps 722 mmHg 96%
    13:00 +3°C° 0 mm 2 mps 722 mmHg 95%
    14:00 +3°C° 0 mm 2 mps 723 mmHg 94%
    15:00 +5°C° 0 mm 1 mps 723 mmHg 93%
    16:00 +4°C° 0 mm 1 mps 724 mmHg 93%
    17:00 +3°C° 0 mm 1 mps 724 mmHg 93%
    18:00 +2°C° 0 mm 0 mps 724 mmHg 93%
    19:00 +3°C° 0 mm 1 mps 725 mmHg 92%
    20:00 +2°C° 0 mm 1 mps 725 mmHg 92%
    21:00 +2°C° 0 mm 1 mps 725 mmHg 92%
    22:00 +3°C° 0 mm 1 mps 725 mmHg 93%
    23:00 +3°C° 0 mm 1 mps 725 mmHg 95%

    28 February, Friday

    Time Temperature Precipitation Wind Pressure Humidity
    00:00 +2°C° 0 mm 2 mps 725 mmHg 96%
    01:00 +3°C° 0.1 mm 2 mps 725 mmHg 96%
    02:00 +2°C° 0.1 mm 3 mps 725 mmHg 96%
    03:00 +1°C° 0.1 mm 4 mps 725 mmHg 96%
    04:00 +1°C° 0 mm 4 mps 725 mmHg 94%
    05:00 0°C° 0 mm 4 mps 725 mmHg 91%
    06:00 -1°C° 0 mm 4 mps 725 mmHg 88%
    07:00 0°C° 0 mm 4 mps 726 mmHg 87%
    08:00 +1°C° 0 mm 3 mps 726 mmHg 86%
    09:00 +2°C° 0 mm 3 mps 726 mmHg 85%
    10:00 +1°C° 0 mm 4 mps 726 mmHg 82%
    11:00 +3°C° 0 mm 4 mps 726 mmHg 78%
    12:00 +3°C° 0 mm 5 mps 726 mmHg 75%
    13:00 +4°C° 0 mm 4 mps 725 mmHg 74%
    14:00 +4°C° 0 mm 4 mps 724 mmHg 73%
    15:00 +4°C° 0 mm 3 mps 724 mmHg 72%
    16:00 +3°C° 0 mm 3 mps 722 mmHg 77%
    17:00 +2°C° 0 mm 3 mps 721 mmHg 83%
    18:00 +1°C° 0 mm 3 mps 720 mmHg 88%
    19:00 +1°C° 0.1 mm 3 mps 719 mmHg 91%
    20:00 +1°C° 0.1 mm 3 mps 718 mmHg 94%
    21:00 0°C° 0.1 mm 4 mps 717 mmHg 97%
    22:00 0°C° 2 mm 5 mps 716 mmHg 96%
    23:00 -2°C° 2 mm 6 mps 716 mmHg 96%

    29 February, Saturday

    Time Temperature Precipitation Wind Pressure Humidity
    00:00 -2°C° 2 mm 7 mps 715 mmHg 95%
    01:00 -3°C° 0.2 mm 6 mps 715 mmHg 92%
    02:00 -2°C° 0.2 mm 5 mps 714 mmHg 88%
    03:00 -2°C° 0.2 mm 4 mps 714 mmHg 85%
    04:00 -2°C° 0.2 mm 4 mps 713 mmHg 87%
    05:00 -3°C° 0.2 mm 4 mps 712 mmHg 90%
    06:00 -3°C° 0.2 mm 4 mps 712 mmHg 93%
    07:00 -3°C° 0.3 mm 4 mps 712 mmHg 93%
    08:00 -2°C° 0.3 mm 4 mps 712 mmHg 93%
    09:00 -2°C° 0.3 mm 5 mps 713 mmHg 94%
    10:00 -1°C° 0 mm 5 mps 714 mmHg 89%
    11:00 0°C° 0 mm 5 mps 715 mmHg 85%
    12:00 +1°C° 0 mm 5 mps 716 mmHg 80%
    13:00 +1°C° 0.2 mm 5 mps 717 mmHg 82%
    14:00 0°C° 0.2 mm 4 mps 718 mmHg 85%
    15:00 0°C° 0.2 mm 4 mps 719 mmHg 87%
    16:00 -1°C° 0.6 mm 4 mps 720 mmHg 90%
    17:00 -1°C° 0.6 mm 4 mps 721 mmHg 94%
    18:00 -2°C° 0.6 mm 4 mps 722 mmHg 97%
    19:00 -2°C° 0.1 mm 4 mps 723 mmHg 93%
    20:00 -3°C° 0.1 mm 4 mps 725 mmHg 89%
    21:00 -3°C° 0.1 mm 4 mps 726 mmHg 85%
    22:00 -3°C° 0 mm 4 mps 727 mmHg 86%
    23:00 -4°C° 0 mm 4 mps 728 mmHg 87%
    Show more